Location: Batequi
(27.2887°N, 113.2898°W)
Time: 00:14:12
(UTC+00:00)

Daily predictions for brighter satellites

Satellite Brightness Start Highest point End
(mag) Time Altitude Azimuth Time Altitude Azimuth Time Altitude Azimuth
Cosmos 2233 Rocket 4.0 02:37:13 10° N 02:43:19 65° E 02:49:27 10° SSE
STARLINK-1254 3.8 02:39:55 10° SSW 02:43:53 49° SE 02:47:53 10° NE
Cosmos 1812 2.8 02:41:06 10° S 02:44:56 82° W 02:48:46 10° N
DELTA 2 R/B (1) 4.0 02:42:09 10° NW 02:47:37 55° NNE 02:53:04 10° ESE
STARLINK-1231 3.7 02:44:50 10° SSW 02:48:51 56° SE 02:52:56 10° NE
Cosmos 1603 3.8 02:45:31 10° NNW 02:51:15 88° WSW 02:57:00 10° SSE
SEDSat Delta rocket 4.4 02:45:35 10° W 02:52:20 67° N 02:58:57 10° ENE
STARLINK-1232 3.6 02:49:45 10° SSW 02:53:50 65° SE 02:57:56 10° NE
Cosmos 1943 3.2 02:48:58 10° NNW 02:54:38 78° ENE 03:00:14 10° SSE
STARLINK-1175 4.5 02:53:48 10° WNW 02:55:57 23° SW 02:58:06 10° S
STARLINK-1173 3.4 02:52:50 10° NW 02:56:26 74° SW 02:59:59 10° SE
KM-V1 3.7 02:54:43 10° WNW 02:57:05 67° NNE 03:01:03 10° E
ARGOS 3.6 02:52:37 10° SE 02:57:40 45° ENE 03:02:46 10° N
Cosmos 1666 4.0 02:54:44 10° NNE 02:57:51 23° E 03:00:44 11° SE
IUS-15 SRM-1 3.5 02:49:43 10° W 02:58:27 75° S 03:00:59 10° E
STARLINK-1208 3.5 02:54:40 10° SW 02:58:47 74° SE 03:02:54 10° NE
YAOGAN 1 4.3 02:55:21 10° SSW 02:59:14 33° W 03:03:08 10° NW
Cosmos 1536 4.0 02:56:26 10° NNE 02:59:50 25° E 03:03:00 11° SE
Cosmos 1707 Rocket 4.4 02:57:01 10° SSW 03:01:15 55° W 03:05:28 10° N
GOES 2 Rocket 4.4 02:54:01 10° W 03:02:32 82° N 03:08:50 10° E
STARLINK-1136 3.7 02:59:52 10° NW 03:03:25 59° SW 03:06:53 10° SSE
STARLINK-1271 3.5 02:59:38 10° SW 03:03:46 84° SE 03:07:54 10° NE
CZ-2C R/B 3.2 03:00:03 10° NNE 03:05:17 40° E 03:10:30 10° SSE
GPS 2-18 Rocket1 4.2 03:02:20 10° WSW 03:05:53 30° S 03:08:36 15° ESE
USA 186 1.7 03:04:23 15° SE 03:05:58 33° ENE 03:08:10 10° N
SJ-6B 3.6 03:02:53 11° SE 03:06:00 31° ENE 03:09:19 10° NNE
Cosmos 1869 Rocket 4.4 03:02:43 10° NNW 03:06:56 51° W 03:11:06 10° SSW
Orbus 7S 3.5 03:06:12 10° SW 03:08:39 37° SSE 03:12:47 10° E
STARLINK-1154 3.6 03:04:37 10° SW 03:08:44 85° NW 03:12:53 10° NE
Cosmos 2084 Rocket 4.1 03:05:18 10° SW 03:09:27 59° WNW 03:13:40 10° NNE
Cosmos 1184 Rocket 3.3 03:06:46 10° NNW 03:09:55 58° W 03:13:04 10° S
Delta 2 Rocket 4.4 03:07:50 10° W 03:10:42 26° SSW 03:13:17 12° SSE
Cosmos 2278 Rocket 3.7 03:10:43 14° ESE 03:12:18 15° E 03:15:28 10° ENE
STARLINK-1197 3.8 03:09:35 10° SW 03:13:42 75° NW 03:17:50 10° NE
ASTEX 1 4.1 03:10:02 12° SE 03:13:58 34° E 03:18:21 10° NNE
Cosmos 1862 Rocket 3.5 03:10:24 10° S 03:14:50 86° E 03:19:16 10° N
STARLINK-1198 4.0 03:14:33 10° SW 03:18:39 66° NW 03:22:46 10° NE
Okean 1-7 4.2 03:18:59 18° SE 03:20:44 23° E 03:24:08 10° NE
Cosmos 1844 Rocket 3.2 03:16:06 10° SSW 03:21:42 63° WNW 03:27:19 10° NNE
Cosmos 1733 Rocket 3.1 03:18:02 10° N 03:22:20 59° E 03:25:54 14° SSE
STARLINK-1146 4.4 03:20:08 10° WNW 03:23:15 34° SW 03:25:44 14° S
OAO 2 Rocket 4.3 03:18:19 10° W 03:23:16 40° SSW 03:26:55 17° SSE
Hubble Space Telescope 0.8 03:19:18 10° W 03:23:27 85° N 03:26:51 15° E
STARLINK-1199 4.3 03:19:36 10° SW 03:23:40 58° NW 03:27:45 10° NNE
STARLINK-1147 4.5 03:21:17 10° WNW 03:24:23 33° SW 03:26:50 14° S
STARLINK-1168 4.5 03:24:25 10° NNW 03:28:15 37° NE 03:30:19 22° E
Meteor 1-11 Rocket 3.7 03:23:05 10° N 03:28:42 85° W 03:34:13 10° S
Resurs 01 Rocket 3.1 03:29:32 19° E 03:30:46 21° ENE 03:34:06 10° NNE
STARLINK-1164 4.3 03:29:20 10° NNW 03:33:16 42° NE 03:35:07 26° E
Cosmos 1891 Rocket 4.5 03:28:45 10° N 03:34:54 66° E 03:40:14 15° SSE
SPOT 3 Rocket 3.9 03:34:16 23° SE 03:37:12 47° ENE 03:42:07 10° N
ATLAS 3B CENTAUR R/B 4.0 03:22:36 10° SW 03:37:50 44° SSE 03:43:01 21° ESE
Cosmos 44 4.4 03:33:23 10° NW 03:37:57 42° WSW 03:42:27 11° S
STARLINK-1182 4.1 03:34:15 10° NNW 03:38:15 47° NE 03:39:54 30° ESE
MOS 1 Rocket 3.5 03:35:29 10° N 03:39:49 62° WNW 03:44:01 10° SSW
STARLINK-1163 3.9 03:39:11 10° NNW 03:43:13 53° NE 03:44:41 34° ESE
NOSS 2-3 (E) 3.7 03:39:36 10° SSW 03:43:43 73° WNW 03:48:07 10° NNE
STARLINK-1172 3.7 03:44:08 10° NNW 03:48:14 61° NE 03:49:29 40° ESE
Cosmos 1703 Rocket 3.4 03:46:14 24° S 03:48:45 66° E 03:53:02 10° NNE
H-2A R/B 3.3 03:44:46 10° SSW 03:49:18 37° W 03:53:56 10° NNW
Cosmos 1624 Rocket 4.0 03:47:17 10° S 03:52:30 64° ESE 03:57:45 10° NNE
NATO 3D Rocket 4.4 03:45:25 10° W 03:53:10 50° S 03:55:38 32° SE
STARLINK-1145 3.6 03:49:04 10° NW 03:53:11 69° NE 03:54:15 46° ESE
Cosmos 1743 3.3 03:50:45 10° NNE 03:54:10 37° ENE 03:54:10 37° ENE
BREEZE M DEB (TANK) 3.5 03:55:07 10° NNW 03:56:52 25° NNE 03:56:52 25° NNE
STARLINK-1161 3.5 03:54:00 10° NW 03:58:08 78° NE 03:59:00 54° ESE
Cosmos 2034 Rocket 3.9 03:54:40 10° N 04:00:49 73° E 04:04:01 30° SSE
Cosmos 389 Rocket 3.1 03:59:13 22° SSW 04:01:12 53° W 04:04:34 10° N
STARLINK-1160 3.5 03:58:58 10° NW 04:03:06 88° NE 04:03:47 62° SE
Cosmos 1816 Rocket 4.5 04:00:14 10° S 04:06:23 80° W 04:12:32 10° N
Cosmos 1371 Rocket 4.1 04:01:13 10° SSW 04:06:29 77° WNW 04:11:44 10° NNE
STARLINK-1170 3.5 04:03:57 10° NW 04:08:05 81° SW 04:08:34 67° SSE
Cosmos 1607 4.0 04:02:10 10° NNW 04:08:35 72° ENE 04:10:57 41° SE
Cosmos 1908 Rocket 3.4 04:06:35 10° N 04:11:02 80° E 04:11:47 60° SSE
Resurs 1-3 3.6 04:10:29 45° S 04:11:47 75° W 04:16:10 10° NNW
Cosmos 1975 4.2 04:08:44 10° NNE 04:11:15 27° NE 04:11:15 27° NE
Okean 1 4.0 04:10:16 24° SSW 04:12:29 53° W 04:16:26 10° N
STARLINK-1150 3.6 04:08:57 10° NW 04:13:04 71° SW 04:13:22 67° SSW
Cosmos 614 Rocket 4.3 04:08:24 10° N 04:13:14 43° ENE 04:13:34 42° E
Delta 198 3.8 04:12:27 10° WSW 04:15:34 44° SW 04:15:34 44° SW
STARLINK-1151 3.7 04:13:57 10° NW 04:18:02 62° SW 04:18:09 61° SW
Cosmos 2251 Rocket 4.4 04:17:08 10° NNW 04:22:03 43° W 04:24:29 26° SSW
GPS 2-04 Rocket1 3.7 04:18:33 10° WSW 04:20:37 33° WSW 04:20:37 33° WSW
Iridium 51 4.3 04:23:07 82° NE 04:23:07 82° NE 04:27:01 10° N
STARLINK-1133 4.0 04:18:57 10° NW 04:22:56 54° SW 04:22:56 54° SW
Spot 2 Rocket 4.0 04:26:03 42° ENE 04:26:03 42° ENE 04:30:33 10° N
STARLINK-1139 4.3 04:23:59 10° NW 04:27:44 46° WSW 04:27:44 46° WSW
Delta 128 3.9 04:25:51 10° W 04:31:45 82° N 04:32:26 67° ENE
DELTA 2 R/B (1) 4.4 04:28:53 10° WNW 04:33:55 36° SW 04:34:16 35° SSW
Cosmos 2056 Rocket 4.4 04:30:18 10° SW 04:35:11 45° WNW 04:40:04 10° N
Gbstr 26 Del rocket 4.4 04:30:15 10° NW 04:38:00 65° SW 04:39:45 50° S
SEDSat Delta rocket 4.2 04:32:47 10° WNW 04:39:30 63° N 04:41:33 43° ENE
Cosmos 1833 Rocket 4.3 04:36:10 10° NNE 04:39:38 20° NE 04:39:38 20° NE
Cosmos 1634 Rocket 3.9 04:36:24 10° N 04:42:40 68° E 04:43:07 66° ESE
H-2A R/B 2.5 04:41:15 10° W 04:44:24 54° SSW 04:44:24 54° SSW
Cosmos 44 Rocket 3.5 04:41:29 10° NNW 04:46:07 70° W 04:46:07 70° W
Meteor 2-9 Rocket 4.0 04:42:21 10° N 04:47:24 78° NNE 04:47:24 78° NNE
Okean 3 4.5 04:50:20 44° N 04:50:20 44° N 04:53:20 10° N
Terra 3.9 04:52:55 16° NE 04:52:55 16° NE 04:54:27 10° NNE
H-2A ROCKET BODY 3.8 04:56:46 49° ESE 04:56:46 49° ESE 05:19:48 10° ENE
Cosmos 2278 Rocket 3.0 04:52:22 21° SW 04:55:51 49° WNW 05:01:21 10° N
GOES 2 Rocket 3.7 04:50:33 10° W 04:57:05 75° WSW 04:57:05 75° WSW
Hubble Space Telescope 2.9 05:00:35 10° W 05:02:12 23° W 05:02:12 23° W
Cosmos 1452 Rocket 4.0 05:07:10 54° N 05:07:10 54° N 05:11:19 10° NNE
Resurs 01 Rocket 3.5 05:07:05 24° W 05:07:05 24° W 05:10:37 10° NW
Cosmos 371 Rocket 4.5 05:12:58 39° N 05:12:58 39° N 05:16:09 10° N
Cosmos 407 Rocket 4.5 05:14:38 10° NNW 05:18:56 44° WNW 05:18:56 44° WNW
SPOT 1/Viking Rocket 4.5 05:25:40 45° NW 05:25:40 45° NW 05:29:21 10° NNW
SPOT 5 4.3 05:28:35 37° N 05:28:35 37° N 05:31:41 10° N
COSMOS 2406 4.1 05:32:14 10° NNW 05:36:21 46° NW 05:36:21 46° NW
ATLAS 3B CENTAUR R/B 4.2 05:52:31 10° WSW 05:57:22 27° WSW 05:57:22 27° WSW
Milstar 3 Cent rocket 4.5 06:01:45 10° SW 06:13:12 69° SSE 06:38:46 10° ENE
Cosmos 2082 Rocket 3.8 06:10:44 10° NNW 06:13:32 30° NNW 06:13:32 30° NNW
Cosmos 2369 Rocket 4.5 06:26:00 17° NNE 06:26:00 17° NNE 06:27:13 10° NNE
Cosmos 1943 Rocket 4.3 06:34:59 21° N 06:34:59 21° N 06:36:45 10° NNE
ATLAS 2AS CENTAUR R/B 4.2 06:45:28 33° NE 06:45:28 33° NE 06:49:39 10° NE
FALCON 9 R/B 4.2 07:32:38 32° NE 07:32:38 32° NE 07:40:01 10° ENE
ATLAS 3B R/B 4.3 08:14:08 10° N 08:19:50 27° NE 08:21:15 25° ENE
CENTAUR R/B 3.5 08:15:41 10° NNW 08:23:13 64° NNE 08:23:13 64° NNE
Resurs 1-4 Rocket 4.4 08:22:49 10° NE 08:24:31 19° NE 08:24:31 19° NE
ATLAS 2AS CENTAUR R/B 4.5 08:32:50 26° NW 08:33:11 26° NW 08:39:36 10° N
VEP-3 4.0 08:46:29 75° SSW 08:46:47 75° S 09:35:16 10° ESE
VEP-3 4.0 08:46:30 75° SSW 08:46:47 75° S 09:35:16 10° ESE
CZ-4C R/B 4.4 08:51:25 16° ENE 08:51:25 16° ENE 08:52:43 10° NE
Cosmos 2297 Rocket 4.1 09:18:39 10° N 09:23:14 25° ENE 09:25:53 18° ESE
IRS-1D 4.4 09:33:52 10° NNE 09:37:40 48° NNE 09:37:40 48° NNE
SL-16 R/B 2.9 09:41:27 54° NNW 09:41:27 54° NNW 09:46:09 10° NNW
Cosmos 1763 Rocket 4.5 09:43:52 41° N 09:43:52 41° N 09:47:12 10° NNE
Cosmos 1697 Rocket 3.0 09:51:53 64° N 09:51:53 64° N 09:56:40 10° NNE
IRS-P3 4.3 09:52:37 10° NNE 09:57:13 68° NNE 09:57:13 68° NNE
CZ-2D R/B 3.8 09:54:16 10° NNW 09:56:52 22° NW 09:56:52 22° NW
Cosmos 2227 Rocket 3.1 09:53:35 10° N 09:59:01 46° ENE 10:02:09 23° SE
ADEOS II 2.4 09:54:26 10° N 09:58:49 62° N 09:58:49 62° N
USA 234 3.4 09:53:24 10° NE 09:59:49 58° SE 10:00:31 55° SSE
SJ 16-02 2.4 10:00:36 10° N 10:03:51 44° NNE 10:03:51 44° NNE
Resurs 1-4 Rocket 3.9 10:03:09 10° NNW 10:05:35 19° NW 10:05:35 19° NW
ARIANE 5 R/B 2.6 10:03:49 10° NNE 10:08:36 70° ENE 10:08:36 70° ENE
ATLAS 3B R/B 3.5 10:04:02 10° NW 10:08:24 36° WNW 10:08:24 36° WNW
ERS-2 4.2 10:12:05 23° E 10:12:44 24° ENE 10:15:46 10° NNE
Cosmos 2181 Rocket 3.9 10:06:39 10° N 10:13:06 89° W 10:14:24 60° S
Cosmos 1570 Rocket 4.3 10:15:11 57° NW 10:15:11 57° NW 10:19:53 10° N
Spot 4 Rocket 4.3 10:10:19 10° NNE 10:15:22 58° ESE 10:16:00 54° SE
Cosmos 1898 Rocket 3.8 10:11:03 10° N 10:16:20 66° ENE 10:17:52 44° SE
Cosmos 2208 Rocket 4.0 10:18:21 67° NW 10:18:21 67° NW 10:23:14 10° N
Cosmos 2154 Rocket 4.5 10:21:10 30° SSE 10:24:13 57° E 10:30:21 10° NNE
IDEFIX/ARIANE 42P 3.3 10:19:35 10° NNE 10:24:40 47° E 10:26:30 34° SSE
Cosmos 2369 4.3 10:25:38 41° WNW 10:25:38 41° WNW 10:30:50 10° N
Cosmos 1937 Rocket 4.1 10:20:53 10° N 10:26:02 56° ENE 10:30:10 16° SSE
Skynet4D Del rocket 3.5 10:28:34 63° S 10:28:46 64° SSE 10:34:06 10° E
Cosmos 2360 4.3 10:28:31 53° W 10:28:48 54° WNW 10:34:22 10° N
Cosmos 1814 Rocket 4.1 10:32:16 56° W 10:32:27 57° WNW 10:37:42 10° N
Meteor 2-17 Rocket 4.4 10:31:45 41° S 10:34:04 82° E 10:40:13 10° N
Meteor 1-28 Rocket 3.9 10:33:40 47° ESE 10:34:11 52° ENE 10:37:52 10° N
CZ-4C R/B 3.4 10:36:36 23° NW 10:36:49 23° NW 10:41:01 10° N
ATLAS CENTAUR R/B 3.8 10:36:48 10° NNW 10:41:25 62° ENE 10:53:48 10° SE
STARLINK-33 4.0 10:43:36 45° ENE 10:43:36 45° ENE 10:45:59 10° NE
Cosmos 1892 4.3 10:41:43 22° SE 10:43:22 32° E 10:46:49 10° NNE
Cosmos 1980 Rocket 2.3 10:42:35 49° WSW 10:43:29 54° WNW 10:48:58 10° N
CZ-4C R/B 4.5 10:41:53 20° SE 10:43:50 36° ENE 10:47:09 10° N
Cosmos 2285 Rocket 4.0 10:39:02 10° NNW 10:45:24 81° ENE 10:51:42 10° SSE
SWIFT 4.3 10:48:04 18° SSE 10:48:04 18° SSE 10:49:29 10° SE
Cosmos 858 Rocket 4.4 10:41:36 10° NNW 10:46:54 87° WSW 10:50:31 21° SSE
IRIDIUM 103 4.4 10:44:21 30° SSE 10:46:57 74° E 10:52:09 10° N
CZ-2D R/B 3.7 10:46:51 10° N 10:50:54 52° WNW 10:51:00 52° W
STARLINK-66 3.3 10:51:48 61° NE 10:51:48 61° NE 10:54:31 10° NE
Cosmos 540 Rocket 4.4 10:51:32 31° WNW 10:51:47 31° WNW 10:56:19 10° N
Cosmos 2219 4.0 10:47:12 10° NW 10:51:18 32° W 10:51:18 32° W
STARLINK-1212 3.7 10:54:14 10° NNW 10:57:15 51° NE 11:00:16 10° SE
STARLINK-1105 3.6 10:54:41 10° NNW 10:57:42 51° NE 11:00:43 10° SE
Cosmos 1400 Rocket 2.7 10:54:04 10° NNW 10:58:10 69° W 10:59:03 51° SSW
STARLINK-1247 3.6 10:55:36 10° NNW 10:58:39 53° NE 11:01:41 10° SE
STARLINK-1227 3.5 10:56:03 10° NNW 10:59:04 54° NE 11:02:06 10° SE
Shenzhou-11 Module 4.4 10:59:54 12° ESE 10:59:54 12° ESE 11:00:32 10° ESE
STARLINK-1228 4.2 11:01:01 32° SSE 11:01:01 32° SSE 11:02:57 10° SE
STARLINK-1226 3.5 10:56:53 10° NNW 10:59:56 56° NE 11:02:59 10° SE
STARLINK-1215 3.4 10:57:50 10° NNW 11:00:54 58° NE 11:03:57 10° SE
NOSS 2-1 (E) 3.9 11:00:24 31° SSE 11:01:29 41° ESE 11:04:42 10° NE
GPS 2-04 Rocket1 3.8 11:02:52 30° S 11:02:52 30° S 11:05:31 10° SE
STARLINK-75 2.8 11:02:24 75° NW 11:02:24 75° NW 11:05:38 10° NE
STARLINK-1217 3.3 10:59:35 10° NNW 11:02:40 61° NE 11:05:45 10° SE
STARLINK-1229 3.2 11:00:30 10° NW 11:03:35 64° NE 11:06:40 10° SE
STARLINK-1270 3.2 11:01:22 10° NW 11:04:28 66° NE 11:07:33 10° SE
IRIDIUM 106 4.2 11:02:36 30° SSW 11:05:14 70° W 11:10:26 10° N
Cosmos 2221 3.0 11:00:59 10° N 11:05:16 62° E 11:09:34 10° SSE
STARLINK-1189 3.0 11:03:12 10° NW 11:06:17 70° NE 11:09:22 10° SE
COBE Rocket 3.9 11:04:21 32° SSW 11:06:20 55° W 11:11:12 10° NNW
PSLV R/B 4.2 11:02:21 10° NNE 11:06:27 52° E 11:09:32 17° S
Cosmos 2297 Rocket 2.8 11:02:15 10° NW 11:07:10 31° WSW 11:07:33 31° WSW
STARLINK-1188 3.0 11:04:05 10° NW 11:07:11 72° NE 11:10:17 10° SE
STARLINK-1235 3.5 11:08:42 41° SSE 11:08:42 41° SSE 11:10:53 10° SE
STARLINK-1187 2.7 11:06:09 19° NW 11:08:15 88° SW 11:11:20 10° SE
SL-08 R/B 3.9 11:09:03 34° WSW 11:09:23 34° W 11:13:38 10° NW
STARLINK-1191 2.8 11:06:32 10° NW 11:09:37 79° NE 11:12:42 10° SE
Nadezhda 3 Rocket 4.1 11:03:40 10° N 11:09:59 84° E 11:16:20 10° S
STARLINK-1221 2.8 11:07:23 10° NW 11:10:29 81° NE 11:13:35 10° SE
Cosmos 2341 Rocket 4.2 11:04:32 11° S 11:10:45 77° E 11:17:08 10° N
Cosmos 2082 3.6 11:05:46 10° NNW 11:11:21 68° WSW 11:16:54 10° S
STARLINK-1222 2.8 11:08:17 10° NW 11:11:24 84° NE 11:14:29 10° SE
Centaur D-1A AC-31 4.2 01:36:59 10° SSW 11:11:26 90° S 11:19:11 10° E
STARLINK-1214 2.7 11:09:12 10° NW 11:12:17 86° NE 11:15:22 10° SE
STARLINK-22 2.8 11:12:00 61° WSW 11:12:27 79° NW 11:15:39 10° NE
STARLINK-58 3.4 11:12:52 40° S 11:13:35 51° SE 11:16:40 10° NE
Cosmos 2322 Rocket 2.8 11:09:27 13° S 11:14:17 55° ESE 11:19:46 10° NNE
STARLINK-1301 3.0 11:14:11 51° WSW 11:14:53 75° NW 11:18:14 10° NE
Cosmos 372 Rocket 4.2 11:10:07 10° N 11:15:14 70° ENE 11:20:22 10° SSE
COSMOS 2441 4.3 11:10:37 10° N 11:15:32 87° W 11:19:07 19° SSW
STARLINK-1307 2.9 11:15:27 48° SW 11:16:16 86° NW 11:19:39 10° NE
CZ-2C R/B 3.4 11:15:07 10° N 11:18:29 33° WNW 11:19:07 31° W
STARLINK-1290 3.0 11:17:42 45° SW 11:18:37 80° NW 11:21:59 10° NE
Cosmos 1315 Rocket 3.2 11:14:45 10° N 11:18:38 62° E 11:22:30 10° SSE
ASTRO E2 3.3 11:19:53 33° SW 11:20:19 34° SSW 11:23:57 10° SE
STARLINK-1297 3.0 11:19:48 42° SW 11:20:48 75° NW 11:24:10 10° NE
H-2A R/B 2.2 11:18:32 22° SSW 11:21:00 49° W 11:25:13 10° NNW
In-Cosmos 22 Rocket 4.2 11:17:11 19° SSW 11:21:24 68° W 11:27:04 10° N
EPKM 4.0 11:10:22 10° W 11:21:50 42° SSW 11:24:55 10° SE
Cosmos 2263 Rocket 4.4 11:17:45 10° N 11:22:26 27° ENE 11:27:05 10° ESE
STARLINK-26 4.5 11:24:02 23° WNW 11:25:04 28° NW 11:28:05 10° NNE
Chunghua 1 4.4 11:23:28 16° WNW 11:26:24 84° SSW 11:30:05 10° ESE
PAYLOAD A 3.9 11:23:02 10° NNE 11:27:44 81° ESE 11:32:30 10° S
Cosmos 2058 3.2 11:26:01 25° SW 11:28:06 47° W 11:32:09 10° N
STARLINK-80 3.8 11:26:33 28° WSW 11:28:10 48° NW 11:31:51 10° NNE
STARLINK-64 4.4 11:27:22 18° S 11:29:35 37° SE 11:32:55 10° ENE
STARLINK-1317 3.7 11:31:26 26° WSW 11:32:53 42° NW 11:36:08 10° NNE
deb Chang Zheng 4 3.6 11:28:42 10° N 11:32:55 57° WNW 11:36:02 17° SSW
GPS 2-14 Rocket1 3.6 11:32:18 24° SW 11:33:32 29° S 11:36:50 10° ESE
Cosmos 1408 2.5 11:30:45 14° S 11:33:50 82° W 11:37:32 10° N
STARLINK-42 4.4 11:33:36 20° W 11:34:49 25° NW 11:37:32 10° NNE
CZ-4B R/B 2.4 11:32:44 10° SSE 11:35:38 43° ENE 11:38:32 10° N
Lacrosse 4 Rocket 1.3 11:31:50 10° NNW 11:36:05 80° WSW 11:40:11 10° SSE
Cosmos 2150 Rocket 3.9 11:34:47 10° NNW 11:39:57 89° WSW 11:45:05 10° SSE
STARLINK-1197 4.3 11:35:53 10° NNW 11:39:58 59° NE 11:44:03 10° SE
STARLINK-1283 4.4 11:38:26 19° W 11:40:26 32° NW 11:43:47 10° NNE
SL-16 R/B 2.3 11:36:34 14° SSW 11:41:20 64° WNW 11:46:58 10° NNE
USA 234 4.3 11:36:55 10° NNE 11:42:30 31° NW 11:47:52 11° W
Cosmos 2227 Rocket 3.6 11:39:09 10° WNW 11:42:35 17° W 11:43:48 16° WSW
STARLINK-1198 4.0 11:40:48 10° NW 11:44:56 67° NE 11:49:02 10° SE
ERS-2 4.1 11:46:41 12° W 11:46:41 12° W 11:47:54 10° WNW
STARLINK-1316 4.1 11:44:52 17° W 11:46:35 29° NW 11:49:21 10° NNE
STARLINK-1257 4.2 11:45:43 17° W 11:47:28 28° NW 11:50:12 10° NNE
STARLINK-1256 4.2 11:46:37 16° W 11:48:24 27° NW 11:51:07 10° NNE
Yuri Rocket 4.5 11:39:26 10° W 11:48:44 83° N 11:55:15 10° E
STARLINK-1213 4.2 11:47:27 16° W 11:49:16 27° NW 11:51:58 10° NNE
STARLINK-1199 3.8 11:45:48 10° NW 11:49:56 76° NE 11:54:03 10° SE
STARLINK-1263 4.3 11:48:19 15° W 11:50:10 26° NW 11:52:51 10° NNE
Cosmos 1825 2.0 11:46:25 10° S 11:50:10 78° W 11:53:55 10° N
STARLINK-62 3.6 11:48:23 17° WSW 11:50:28 42° NW 11:53:30 10° NNE
STARLINK-1259 4.3 11:49:11 15° W 11:51:04 25° NW 11:53:44 10° NNE
STARLINK-1265 4.3 11:49:44 15° W 11:51:38 25° NW 11:54:17 10° NNE
STARLINK-1285 4.4 11:50:02 14° W 11:51:57 25° NW 11:54:35 10° NNE
STARLINK-34 3.7 11:50:08 16° WSW 11:52:17 39° NW 11:55:17 10° NNE
STARLINK-1295 4.5 11:48:41 10° SSW 11:52:38 45° SE 11:56:34 10° NE
Cosmos 864 Rocket 4.5 11:46:42 10° S 11:52:51 87° W 11:59:00 10° N
Cosmos 2218 Rocket 4.0 11:47:03 10° S 11:53:18 78° W 11:59:40 10° N
STARLINK-1296 4.4 11:51:46 14° W 11:53:46 24° NW 11:56:21 10° NNE
STARLINK-1260 4.5 11:52:38 13° W 11:54:41 23° NW 11:57:15 10° NNE
STARLINK-1210 3.6 11:50:46 10° NW 11:54:54 87° NE 11:59:02 10° SE
STARLINK-1268 4.5 11:53:07 13° W 11:55:09 23° NW 11:57:41 10° N
STARLINK-1029 3.1 11:54:19 15° SW 11:56:47 55° NW 11:59:53 10° NNE
